This is the latest recevied weather packets stored in our database for station/object R1ZAAG-14. If no packets are shown the sender has not sent any weather packets the latest 10 day(s).
| Time | Temp. | Humidity | Pressure | Rain* | Wind** | Luminosity | Snow |
|---|---|---|---|---|---|---|---|
| 1777899369 | 16.11° C | 33% | 1001.3 hPa | - | - | - | - |
| 1777898468 | 15° C | 33% | 1001.2 hPa | - | - | - | - |
| 1777897567 | 15° C | 35% | 1001.3 hPa | - | - | - | - |
| 1777896666 | 13.33° C | 36% | 1001.5 hPa | - | - | - | - |
| 1777895766 | 11.67° C | 38% | 1001.5 hPa | - | - | - | - |
| 1777894864 | 10.56° C | 39% | 1001.7 hPa | - | - | - | - |
| 1777893964 | 8.33° C | 42% | 1001.9 hPa | - | - | - | - |
| 1777893061 | 7.78° C | 42% | 1002.1 hPa | - | - | - | - |
| 1777892160 | 6.67° C | 44% | 1002.1 hPa | - | - | - | - |
| 1777891259 | 7.22° C | 43% | 1002.3 hPa | - | - | - | - |
| 1777890379 | 6.67° C | 43% | 1002.3 hPa | - | - | - | - |
| 1777889479 | 6.67° C | 44% | 1002.4 hPa | - | - | - | - |
| 1777888578 | 6.11° C | 44% | 1002.5 hPa | - | - | - | - |
| 1777887677 | 5.56° C | 44% | 1002.4 hPa | - | - | - | - |
| 1777886776 | 5.56° C | 46% | 1002.4 hPa | - | - | - | - |
| 1777885876 | 5.56° C | 44% | 1002.4 hPa | - | - | - | - |
| 1777884976 | 5° C | 46% | 1002.4 hPa | - | - | - | - |
| 1777884075 | 5° C | 44% | 1002.4 hPa | - | - | - | - |
| 1777883174 | 5° C | 45% | 1002.5 hPa | - | - | - | - |
| 1777882274 | 4.44° C | 46% | 1002.5 hPa | - | - | - | - |
| 1777881373 | 4.44° C | 46% | 1002.5 hPa | - | - | - | - |
| 1777880473 | 3.89° C | 48% | 1002.4 hPa | - | - | - | - |
| 1777879572 | 3.89° C | 48% | 1002.6 hPa | - | - | - | - |
| 1777878672 | 3.33° C | 48% | 1002.5 hPa | - | - | - | - |
| 1777876868 | 3.33° C | 50% | 1002.6 hPa | - | - | - | - |
* Rain since midnight (hover to see other rain measurements)
** Current wind speed in m/s (hover to see current wind gust speed)